Probability
0 0 0 0 0 0 0 0 0 0 0 0 0 3 6 6 3 0 0 0 0 0 0 0 0 0 3 3 3 3 3 3 0 0 0 0 0 0 0 0 0 0 0 0
0 0 0 0 0 0 0 0 0 0 0 0 0 3 6 3 3 0 0 0 0 0 0 0 0 0 0 0 0 0 0 0 0 0 0 0 0 0 0 0 0 0 0 0
0 0 0 0 0 0 0 0 0 0 0 3 3 10 3 3 3 0 0 0 0 0 0 0 0 0 0 0 0 0 0 0 0 0 0 0 0 0 0 0 0 0 0 0
0 0 0 0 0 0 0 0 0 3 3 3 3 3 3 0 0 0 0 0 0 0 0 0 0 0 0 0 0 0 0 0 0 0 0 0 0 0 0 0 0 0 0 0
0 0 0 0 0 0 0 0 3 3 3 3 3 3 3 0 0 0 0 0 0 0 0 0 0 0 0 0 0 0 0 0 0 0 0 0 0 0 0 0 0 0 0 0
0 0 0 0 0 0 0 0 3 3 3 3 3 3 3 0 0 0 0 0 0 0 0 0 0 0 0 0 0 0 0 0 0 0 0 0 0 0 0 0 0 0 0 0
0 0 0 0 0 0 0 0 0 3 3 3 0 0 0 0 0 0 0 0 0 0 0 0 0 0 0 0 0 0 0 0 0 0 0 0 0 0 0 0 0 0 0 0
0 0 0 0 0 0 0 0 0 3 3 3 0 0 0 0 0 0 0 0 0 0 0 0 0 0 0 0 0 0 0 0 0 0 0 0 0 0 0 0 0 0 0 0
0 0 0 0 0 0 0 0 0 3 3 0 0 0 0 0 0 0 0 0 0 0 0 0 0 0 0 0 0 0 0 0 0 0 0 0 0 0 0 0 0 0 0 0
0 0 0 0 0 0 0 0 0 0 0 0 0 0 0 0 0 0 0 0 0 0 0 0 0 0 0 0 0 0 0 0 0 0 0 0 0 0 0 0 0 0 0 0
0 0 0 0 0 0 0 0 0 0 0 0 0 0 0 0 0 0 0 0 0 0 0 0 0 0 0 0 0 0 0 0 0 0 0 0 0 0 0 0 0 0 0 0
0 0 0 0 0 0 0 0 0 0 0 0 0 0 0 0 0 0 0 0 0 0 0 0 0 0 0 0 0 0 0 0 0 0 0 0 0 0 0 0 0 0 0 0
0 0 0 0 0 0 0 0 0 0 0 0 0 0 0 0 0 0 0 0 0 0 0 0 0 0 0 0 0 0 0 0 0 0 0 0 0 0 0 0 0 0 0 0
0 0 0 0 0 0 0 0 0 0 0 0 0 0 0 0 0 0 0 0 0 0 0 0 0 0 0 0 0 0 0 0 0 0 0 0 0 0 0 0 0 0 0 0
0 0 0 0 0 0 0 0 0 0 0 0 0 0 0 0 0 0 0 0 0 0 0 0 0 0 0 0 0 0 0 0 0 0 0 0 0 0 0 0 0 0 0 0
0 0 0 0 0 0 0 0 0 0 0 0 0 0 0 0 0 0 0 0 0 0 0 0 0 0 0 0 0 0 0 0 0 0 0 0 0 0 0 0 0 0 0 0
0 0 0 0 0 0 0 0 0 0 0 0 0 0 0 0 0 0 0 0 0 0 0 0 0 0 0 0 0 0 0 0 0 0 0 0 0 0 0 0 0 0 0 0
0 0 0 0 0 0 0 0 0 0 0 0 0 0 0 0 0 0 0 0 0 0 0 0 0 0 0 0 0 0 0 0 0 0 0 0 0 0 0 0 0 0 0 0
0 0 0 0 0 0 0 0 0 0 0 0 0 0 0 0 0 0 0 0 0 0 0 0 0 0 0 0 0 0 0 0 0 0 0 0 0 0 0 0 0 0 0 0
0 0 0 0 0 0 0 0 0 0 0 0 0 0 0 0 0 0 0 0 0 0 0 0 0 0 0 0 0 0 0 0 0 0 0 0 0 0 0 0 0 0 0 0
0 0 0 0 0 0 0 0 0 0 0 0 0 0 0 0 0 0 0 0 0 0 0 0 0 0 0 0 0 0 0 0 0 0 0 0 0 0 0 0 0 0 0 0
0 0 0 0 0 0 0 0 0 0 0 0 0 0 0 0 0 0 0 0 0 0 0 0 0 0 0 0 0 0 0 0 0 0 0 0 0 0 0 0 0 0 0 0
0 0 0 0 0 0 0 0 0 0 0 0 0 0 0 0 0 0 0 0 0 0 0 0 0 0 0 0 0 0 0 0 0 0 0 0 0 0 0 0 0 0 0 0
0 0 0 0 0 0 0 0 0 0 0 0 0 0 0 0 0 0 0 0 0 0 0 0 0 0 0 0 0 0 0 0 0 0 0 0 0 0 0 0 0 0 0 0
0 0 0 0 0 0 0 0 0 0 0 0 0 0 0 0 0 0 0 0 0 0 0 0 0 0 0 0 0 0 0 0 0 0 0 0 0 0 0 0 0 0 0 0
0 0 0 0 0 0 0 0 0 0 0 0 0 0 0 0 0 0 0 0 0 0 0 0 0 0 0 0 0 0 0 0 0 0 0 0 0 0 0 0 0 0 0 0
0 0 0 0 0 0 0 0 0 0 0 0 0 0 0 0 0 0 0 0 0 0 0 0 0 0 0 0 0 0 0 0 0 0 0 0 0 0 0 0 0 0 0 0
Height
5794 5794 5795 5795 5795 5795 5795 5794 5794 5793 5792 5791 5789 5788 5787 5786 5785 5784 5783 5782 5782 5781 5780 5779 5779 5778 5777 5775 5774 5772 5771 5769 5766 5763 5761 5758 5756 5752 5749 5746 5744 5741 5738 5736
5791 5791 5791 5791 5791 5791 5791 5790 5789 5789 5788 5787 5785 5783 5782 5781 5780 5779 5778 5778 5777 5776 5775 5774 5773 5773 5772 5771 5769 5768 5767 5765 5762 5760 5758 5755 5752 5750 5746 5744 5741 5738 5735 5733
5788 5787 5787 5788 5788 5788 5787 5786 5786 5785 5784 5782 5780 5779 5777 5776 5776 5775 5774 5773 5772 5771 5770 5769 5769 5768 5768 5767 5765 5764 5763 5761 5759 5757 5755 5752 5750 5747 5744 5741 5739 5736 5733 5731
5784 5785 5784 5787 5785 5784 5784 5783 5782 5781 5780 5778 5776 5775 5773 5772 5771 5770 5770 5769 5768 5767 5765 5764 5764 5764 5763 5763 5762 5761 5760 5758 5756 5754 5752 5750 5747 5745 5742 5740 5737 5735 5732 5730
5781 5780 5781 5782 5781 5780 5780 5779 5778 5777 5776 5774 5773 5771 5770 5769 5768 5767 5766 5765 5764 5763 5761 5760 5760 5759 5759 5759 5758 5758 5757 5755 5754 5752 5750 5748 5746 5743 5741 5739 5736 5734 5731 5729
5777 5776 5777 5779 5777 5776 5777 5776 5775 5773 5772 5770 5769 5768 5768 5766 5765 5763 5762 5761 5760 5759 5758 5757 5757 5756 5755 5755 5755 5755 5754 5753 5752 5750 5748 5746 5744 5742 5740 5737 5735 5733 5730 5728
5774 5773 5773 5774 5773 5773 5774 5773 5771 5769 5768 5767 5766 5765 5764 5762 5761 5760 5759 5758 5757 5756 5755 5755 5754 5753 5752 5752 5752 5752 5751 5751 5750 5748 5747 5745 5743 5741 5739 5737 5734 5732 5730 5728
5771 5771 5773 5771 5770 5770 5770 5768 5767 5766 5765 5764 5762 5761 5760 5759 5758 5757 5756 5755 5754 5754 5753 5752 5751 5750 5750 5750 5750 5750 5749 5748 5748 5747 5745 5744 5742 5740 5738 5736 5734 5732 5730 5728
5769 5770 5768 5767 5767 5766 5765 5765 5763 5763 5762 5761 5759 5758 5757 5756 5755 5754 5753 5753 5752 5751 5751 5750 5749 5749 5748 5748 5748 5748 5747 5747 5746 5746 5744 5742 5741 5739 5737 5735 5733 5731 5729 5727
5765 5765 5765 5764 5764 5763 5762 5761 5761 5760 5759 5758 5756 5755 5754 5753 5752 5751 5751 5750 5750 5749 5749 5749 5748 5747 5747 5747 5747 5747 5746 5746 5745 5744 5743 5741 5740 5738 5736 5734 5732 5731 5729 5727
5762 5762 5762 5762 5761 5760 5759 5759 5758 5757 5756 5755 5754 5753 5751 5750 5750 5749 5749 5749 5748 5748 5748 5748 5747 5747 5746 5746 5746 5746 5745 5745 5744 5743 5742 5740 5739 5737 5736 5734 5732 5730 5728 5726
5760 5760 5760 5760 5759 5758 5757 5757 5756 5755 5754 5753 5752 5751 5750 5749 5748 5748 5747 5747 5747 5747 5747 5747 5747 5746 5746 5746 5745 5745 5745 5744 5744 5742 5741 5740 5738 5737 5735 5733 5732 5730 5728 5726
5757 5757 5757 5757 5757 5756 5756 5755 5754 5753 5753 5752 5751 5750 5749 5748 5747 5747 5747 5746 5746 5747 5747 5747 5747 5746 5746 5746 5745 5745 5744 5744 5743 5742 5741 5740 5738 5737 5735 5733 5731 5730 5728 5727
5755 5756 5756 5756 5755 5755 5754 5753 5753 5752 5751 5751 5750 5749 5748 5748 5747 5746 5746 5746 5746 5746 5746 5746 5746 5746 5746 5745 5745 5745 5744 5743 5743 5742 5740 5739 5738 5736 5735 5733 5732 5730 5728 5727
5754 5754 5755 5755 5754 5754 5753 5752 5752 5751 5750 5750 5749 5749 5748 5748 5747 5747 5747 5746 5746 5746 5746 5746 5746 5746 5746 5745 5745 5744 5744 5743 5742 5741 5740 5739 5738 5736 5735 5733 5732 5730 5728 5726
5753 5753 5754 5753 5753 5753 5752 5751 5751 5750 5750 5749 5749 5749 5749 5748 5748 5748 5747 5747 5747 5747 5746 5746 5746 5746 5746 5745 5745 5744 5743 5743 5742 5741 5740 5739 5737 5736 5735 5733 5731 5729 5727 5725
5752 5753 5753 5753 5752 5752 5751 5751 5750 5750 5750 5750 5749 5749 5749 5749 5748 5748 5748 5748 5747 5747 5747 5747 5746 5746 5746 5745 5745 5744 5744 5743 5742 5741 5740 5738 5737 5735 5734 5732 5730 5728 5726 5724
5751 5752 5752 5752 5751 5751 5751 5750 5750 5750 5750 5750 5750 5750 5750 5750 5749 5749 5749 5748 5748 5748 5748 5747 5747 5746 5746 5745 5745 5744 5743 5742 5741 5740 5739 5737 5736 5734 5733 5731 5729 5727 5725 5722
5751 5751 5751 5751 5751 5751 5751 5751 5751 5750 5750 5750 5750 5750 5750 5750 5750 5750 5750 5750 5749 5749 5748 5748 5747 5747 5746 5745 5745 5744 5743 5742 5741 5740 5738 5737 5735 5733 5731 5729 5727 5725 5723 5720
5750 5751 5751 5751 5751 5751 5751 5751 5751 5751 5751 5751 5751 5751 5751 5752 5752 5751 5751 5751 5750 5750 5749 5748 5748 5747 5747 5746 5745 5744 5743 5742 5741 5739 5737 5736 5734 5731 5729 5727 5725 5722 5720 5717
5750 5751 5751 5752 5752 5752 5752 5752 5752 5752 5752 5752 5752 5752 5753 5753 5753 5753 5752 5752 5752 5751 5750 5749 5749 5748 5747 5746 5745 5744 5743 5742 5740 5738 5736 5734 5732 5730 5727 5725 5722 5719 5717 5714
5750 5751 5751 5752 5752 5753 5753 5753 5753 5753 5753 5753 5754 5754 5754 5754 5754 5754 5753 5753 5753 5752 5751 5750 5749 5749 5748 5747 5746 5744 5743 5741 5739 5737 5735 5732 5730 5727 5724 5722 5719 5716 5713 5710
5750 5751 5752 5752 5753 5754 5754 5754 5754 5754 5754 5754 5755 5755 5755 5755 5755 5754 5754 5754 5753 5752 5752 5751 5750 5749 5748 5747 5745 5743 5742 5740 5738 5735 5733 5730 5727 5724 5721 5718 5715 5712 5708 5705
5749 5751 5752 5753 5754 5754 5755 5755 5755 5755 5755 5755 5755 5755 5755 5755 5755 5755 5755 5754 5754 5753 5752 5751 5750 5749 5747 5746 5744 5742 5740 5738 5736 5733 5730 5727 5724 5721 5718 5715 5711 5707 5704 5700
5749 5751 5752 5753 5754 5755 5755 5755 5756 5756 5756 5756 5756 5756 5756 5756 5755 5755 5755 5754 5754 5753 5752 5751 5749 5748 5746 5745 5743 5741 5739 5736 5733 5731 5728 5725 5721 5718 5714 5710 5707 5703 5699 5695
5749 5750 5752 5753 5754 5755 5755 5755 5756 5756 5756 5756 5756 5756 5756 5756 5755 5755 5755 5754 5753 5752 5751 5750 5749 5747 5745 5743 5741 5739 5736 5734 5731 5728 5724 5721 5718 5714 5710 5706 5702 5698 5694 5690
5748 5749 5751 5752 5753 5754 5755 5755 5756 5756 5756 5756 5756 5756 5755 5755 5755 5754 5754 5753 5753 5752 5750 5749 5747 5745 5743 5741 5739 5736 5734 5731 5728 5724 5721 5717 5713 5710 5705 5701 5697 5693 5688 5683
Wind_Speed
14 15 15 14 15 16 16 17 19 19 18 17 17 17 16 16 15 15 16 16 16 16 16 16 16 17 17 17 16 16 17 17 18 18 18 17 17 17 17 17 16 16 16 16
14 15 15 14 14 15 16 16 17 17 17 16 17 16 15 15 15 15 15 15 15 15 16 16 15 16 15 15 15 15 15 16 16 16 16 16 16 16 16 15 14 14 15 15
14 15 15 15 14 14 15 15 15 16 15 15 16 15 15 14 15 16 15 15 15 15 16 16 16 15 14 14 14 14 14 14 14 14 15 15 15 15 14 14 14 14 14 14
15 15 16 14 14 15 15 14 15 15 15 15 15 15 14 14 14 14 14 14 14 15 15 14 14 13 13 12 12 11 11 12 12 12 13 13 13 13 13 13 13 13 13 13
16 16 15 14 15 15 15 14 14 15 15 15 14 14 13 13 13 13 12 12 12 13 12 11 11 11 11 10 10 10 10 10 11 11 11 11 11 11 11 11 12 12 12 12
16 16 16 14 14 14 14 14 14 14 14 13 12 12 12 12 12 11 10 10 10 10 10 10 10 9 8 8 8 8 9 9 8 9 9 10 10 11 11 12 12 12 11 11
15 15 14 13 12 13 14 13 13 13 13 12 12 11 11 11 11 10 9 9 9 8 8 9 9 8 7 7 7 8 7 7 7 7 8 9 10 10 10 11 11 11 11 10
14 14 13 11 11 12 12 12 12 12 12 12 11 11 11 10 10 9 8 8 7 7 7 7 7 6 6 6 6 6 6 6 6 7 8 9 9 9 10 10 10 10 10 10
13 12 12 11 11 11 11 11 11 11 11 11 10 10 10 9 9 8 7 7 6 6 6 6 6 6 4 3 4 5 6 6 6 7 7 8 9 9 9 9 9 9 9 9
12 11 10 10 10 10 10 9 9 9 9 9 8 8 8 8 8 7 6 5 5 5 5 5 5 4 3 3 3 5 4 5 5 6 7 8 8 8 8 8 9 9 9 10
10 10 10 9 9 8 8 7 7 7 7 7 7 7 7 6 5 5 5 4 4 4 3 3 3 3 2 2 3 3 3 4 5 6 7 7 8 8 8 9 9 9 9 9
9 9 9 8 7 6 6 6 6 6 6 6 6 5 4 4 3 3 3 3 2 2 1 2 3 2 2 2 2 3 3 4 5 7 7 7 7 8 8 8 8 8 8 9
8 8 7 5 5 5 5 5 5 5 5 4 4 4 3 3 2 2 2 1 1 1 1 1 2 2 2 2 3 3 4 5 5 6 7 7 7 8 8 8 8 8 8 8
7 7 5 4 4 5 5 5 4 3 3 3 3 3 3 2 3 2 1 1 2 2 1 1 1 2 3 3 4 4 4 4 5 6 7 7 8 8 9 9 9 9 9 9
6 6 5 4 3 3 4 3 3 2 3 2 2 2 3 3 3 2 2 2 2 2 2 1 2 2 2 3 4 4 5 5 5 6 7 7 8 8 9 9 10 9 10 10
6 5 4 3 2 2 2 2 1 1 1 2 2 3 3 3 3 3 3 3 3 3 2 2 2 2 2 2 3 4 5 6 6 7 7 8 9 9 10 10 10 11 11 11
5 4 3 3 2 1 1 0 0 1 2 2 2 3 3 3 3 3 3 3 4 4 3 3 3 3 3 3 4 5 5 6 7 8 8 8 9 10 11 11 11 12 12 12
5 4 3 2 2 1 1 1 2 2 2 2 3 3 3 4 4 4 4 4 4 4 4 4 4 4 4 4 4 5 6 6 7 8 9 9 10 10 11 12 12 13 14 14
5 4 3 3 2 2 2 2 3 3 3 3 3 3 4 4 4 4 4 4 4 4 4 4 4 5 5 5 5 6 6 7 8 9 9 10 11 11 12 13 13 14 15 15
6 5 4 4 3 3 3 4 4 5 4 4 4 4 4 4 4 4 4 5 5 5 5 4 4 4 5 6 6 6 7 8 9 9 10 11 12 13 14 14 15 15 16 17
6 6 5 4 4 4 4 4 5 5 5 4 4 4 4 4 4 4 5 5 5 5 5 5 5 5 6 6 7 8 8 9 10 11 12 13 14 14 15 16 16 17 18 19
7 6 6 5 4 4 4 4 4 4 4 4 4 4 4 4 4 4 4 5 5 5 5 5 5 6 6 7 8 9 10 11 11 12 14 15 15 16 17 18 19 20 20 21
8 7 6 6 5 4 4 4 4 4 4 4 3 3 3 3 3 3 3 4 4 5 5 6 6 6 7 8 9 10 11 12 13 14 16 16 17 18 19 20 21 21 22 23
8 8 7 6 6 5 4 4 3 3 3 3 3 3 2 2 2 3 3 3 4 4 5 6 7 8 8 9 10 11 12 13 15 16 17 18 19 20 21 22 22 23 23 24
10 9 8 7 6 5 4 3 2 2 2 2 2 2 2 2 2 3 3 3 4 5 6 7 8 10 11 11 12 13 14 15 17 18 19 20 21 22 23 24 24 25 25 26
10 9 8 7 6 5 3 2 2 1 1 1 1 2 2 2 3 3 3 4 5 7 8 9 10 11 12 13 14 15 16 17 18 19 20 22 23 24 25 25 26 26 27 28
11 9 8 7 6 5 4 2 1 1 0 1 2 2 3 3 4 4 5 6 7 8 10 11 11 12 13 14 15 16 18 19 20 21 22 23 24 26 26 27 28 28 29 30
Wind_Direction
259 262 265 267 269 271 277 281 281 284 287 290 289 289 287 285 281 279 280 280 279 281 283 282 284 287 290 290 293 296 299 303 308 310 313 316 318 318 317 317 316 317 316 316
262 267 267 268 272 275 280 283 282 285 288 290 293 290 288 285 283 283 282 282 281 282 284 283 283 284 289 291 294 297 301 307 311 312 313 316 321 323 324 323 322 322 322 322
265 268 271 274 277 278 283 285 288 288 290 293 295 293 290 287 286 286 284 283 283 285 286 286 287 286 286 292 297 300 303 305 309 314 316 318 320 321 325 326 327 327 328 329
270 271 272 276 276 280 280 281 287 291 292 294 295 295 293 291 288 288 288 287 288 290 292 289 286 284 284 289 299 301 303 308 312 316 320 321 323 325 327 332 335 336 335 336
271 274 277 277 278 284 285 286 289 293 295 296 295 294 293 293 292 292 294 294 294 295 295 287 286 286 289 288 295 298 303 311 313 317 323 327 329 330 333 338 340 338 340 342
270 275 278 281 282 283 286 287 291 296 296 297 296 292 291 292 294 296 297 298 296 295 296 291 291 289 288 291 297 300 304 313 316 319 324 330 333 336 337 339 339 343 345 345
269 274 279 284 285 284 286 289 289 292 294 296 295 293 291 292 293 295 298 298 298 298 298 297 293 285 291 296 300 304 308 313 317 322 325 328 334 341 345 345 345 348 350 352
269 273 280 282 285 287 288 287 285 287 292 295 293 292 291 293 296 297 300 302 302 301 299 296 293 289 294 302 302 303 307 314 315 320 326 331 334 339 343 346 348 349 352 355
271 275 280 281 286 287 285 286 284 285 293 295 294 292 291 292 294 295 298 301 302 298 300 302 308 304 291 300 303 304 306 312 320 327 332 335 336 337 338 342 347 351 354 357
267 273 277 281 285 287 288 289 287 292 298 298 296 296 292 289 292 294 295 302 306 309 302 301 309 327 309 297 310 316 317 324 328 331 334 337 340 342 343 346 348 351 353 357
262 270 275 282 285 288 293 292 296 302 306 307 305 304 299 297 296 295 298 305 316 322 311 315 339 349 324 309 312 328 342 347 343 343 344 345 346 346 345 344 346 352 356 360
259 266 273 278 281 287 292 294 301 306 309 314 318 320 317 311 308 306 310 310 315 322 298 318 358 2 347 345 346 348 348 347 350 352 349 350 354 354 355 357 2 5 7 8
258 263 264 267 274 285 291 296 306 314 318 324 335 343 343 344 345 336 324 325 337 347 328 337 348 359 348 348 353 350 345 346 350 355 356 359 1 2 3 3 3 1 0 1
253 253 251 257 267 280 286 295 306 321 330 332 344 357 3 9 12 6 2 16 1 354 356 344 342 345 345 349 354 354 352 352 355 358 358 359 359 359 0 2 359 356 352 349
243 241 241 255 268 283 286 291 301 318 342 357 11 31 41 48 52 48 55 49 29 20 13 5 354 340 340 345 350 357 356 353 353 355 357 356 356 355 352 351 351 350 347 346
224 221 228 243 266 287 286 285 306 345 20 39 60 62 62 69 69 63 50 40 41 41 35 23 9 4 353 354 359 358 356 356 357 355 352 353 353 351 349 347 346 344 343 343
206 206 218 234 253 269 299 344 84 73 66 68 72 73 78 71 63 58 50 50 50 48 44 36 31 27 21 11 3 1 356 354 352 350 348 346 345 344 342 340 339 339 338 337
188 190 198 211 212 201 147 102 101 85 66 72 82 93 88 73 63 64 64 65 57 47 41 38 39 37 29 20 9 4 358 352 346 343 342 343 341 339 338 337 336 335 334 332
184 180 170 167 152 138 127 115 105 94 91 87 86 94 88 74 77 74 68 65 60 49 41 38 38 35 32 22 16 8 1 354 347 344 342 342 341 340 338 336 334 332 330 329
181 176 163 152 137 125 115 107 103 105 103 94 87 89 85 80 79 71 63 58 56 47 39 36 33 31 25 21 16 8 1 354 349 345 343 341 339 336 334 332 331 330 328 326
181 174 168 159 143 127 115 109 107 106 100 97 92 93 92 85 81 70 61 57 52 43 37 36 32 24 18 13 6 359 353 348 344 340 337 336 334 332 330 328 326 324 323 323
179 175 172 164 150 135 121 115 112 108 101 98 96 93 87 84 78 65 53 47 39 32 28 24 19 11 4 358 353 350 346 344 341 337 335 334 332 331 328 326 325 323 322 322
179 175 171 164 155 142 127 118 113 109 102 101 97 87 80 74 65 54 42 33 21 17 16 12 7 1 355 349 346 343 341 339 336 334 333 333 332 330 329 327 326 324 323 323
181 176 174 171 164 152 137 123 115 107 99 93 84 72 64 54 43 31 21 13 6 2 359 356 352 350 346 342 339 338 336 335 334 332 331 331 330 329 329 328 327 325 324 322
181 178 176 173 168 159 149 140 131 114 94 77 61 48 34 20 12 5 1 350 346 346 345 343 342 340 338 336 335 334 333 332 331 330 329 329 329 328 328 327 325 324 324 323
183 181 179 176 173 170 164 155 146 123 70 40 24 10 358 354 350 344 338 332 331 333 334 334 334 333 332 332 333 332 331 329 328 329 329 329 329 328 328 327 326 325 324 322
185 184 184 183 180 180 180 179 184 207 338 355 350 347 342 338 335 331 325 324 326 328 330 331 331 332 331 330 329 328 327 327 328 328 328 327 326 326 326 325 324 323 322 321